EN

Hourly Weather Abartzuza

Today, 26 November, Thursday

Time Temperature Precipitation Wind Pressure Humidity
00:00 +6°C° 0 mm 4 mps 707 mmHg 91%
01:00 +6°C° 0 mm 4 mps 707 mmHg 92%
02:00 +6°C° 0 mm 4 mps 707 mmHg 94%
03:00 +6°C° 0 mm 4 mps 707 mmHg 95%
04:00 +6°C° 0 mm 4 mps 707 mmHg 94%
05:00 +6°C° 0 mm 4 mps 707 mmHg 94%
06:00 +6°C° 0 mm 4 mps 707 mmHg 94%
07:00 +7°C° 0 mm 4 mps 707 mmHg 92%
08:00 +7°C° 0 mm 4 mps 708 mmHg 90%
09:00 +8°C° 0 mm 4 mps 708 mmHg 88%
10:00 +9°C° 0 mm 5 mps 708 mmHg 84%
11:00 +9°C° 0 mm 6 mps 708 mmHg 81%
12:00 +10°C° 0 mm 7 mps 707 mmHg 78%
13:00 +10°C° 0.1 mm 6 mps 707 mmHg 78%
14:00 +10°C° 0.1 mm 6 mps 707 mmHg 78%
15:00 +12°C° 0.1 mm 5 mps 707 mmHg 79%
16:00 +11°C° 0.1 mm 4 mps 707 mmHg 81%
17:00 +10°C° 0.1 mm 4 mps 707 mmHg 83%
18:00 +10°C° 0.1 mm 3 mps 707 mmHg 86%
19:00 +10°C° 0 mm 3 mps 708 mmHg 86%
20:00 +9°C° 0 mm 3 mps 708 mmHg 86%
21:00 +9°C° 0 mm 2 mps 708 mmHg 86%
22:00 +9°C° 0.1 mm 2 mps 708 mmHg 86%
23:00 +9°C° 0.1 mm 2 mps 708 mmHg 86%

Tomorrow, 27 November, Friday

Time Temperature Precipitation Wind Pressure Humidity
00:00 +9°C° 0.1 mm 2 mps 708 mmHg 87%
01:00 +9°C° 0 mm 2 mps 708 mmHg 86%
02:00 +9°C° 0 mm 2 mps 707 mmHg 86%
03:00 +10°C° 0 mm 1 mps 707 mmHg 86%
04:00 +10°C° 0 mm 1 mps 707 mmHg 87%
05:00 +9°C° 0 mm 1 mps 707 mmHg 88%
06:00 +9°C° 0 mm 1 mps 707 mmHg 89%
07:00 +8°C° 0 mm 2 mps 707 mmHg 85%
08:00 +9°C° 0 mm 2 mps 707 mmHg 81%
09:00 +10°C° 0 mm 2 mps 707 mmHg 77%
10:00 +11°C° 0 mm 3 mps 707 mmHg 73%
11:00 +11°C° 0 mm 3 mps 707 mmHg 68%
12:00 +12°C° 0 mm 3 mps 706 mmHg 64%
13:00 +13°C° 0 mm 3 mps 706 mmHg 63%
14:00 +13°C° 0 mm 3 mps 706 mmHg 62%
15:00 +14°C° 0 mm 2 mps 705 mmHg 61%
16:00 +13°C° 0 mm 2 mps 705 mmHg 67%
17:00 +11°C° 0 mm 1 mps 705 mmHg 73%
18:00 +9°C° 0 mm 0 mps 705 mmHg 79%
19:00 +10°C° 0 mm 1 mps 705 mmHg 80%
20:00 +10°C° 0 mm 1 mps 705 mmHg 81%
21:00 +10°C° 0 mm 1 mps 705 mmHg 81%
22:00 +10°C° 0 mm 1 mps 704 mmHg 82%
23:00 +10°C° 0 mm 1 mps 704 mmHg 83%

Day after tomorrow, 28 November, Saturday

Time Temperature Precipitation Wind Pressure Humidity
00:00 +10°C° 0 mm 1 mps 704 mmHg 83%
01:00 +9°C° 0 mm 1 mps 704 mmHg 85%
02:00 +7°C° 0 mm 0 mps 703 mmHg 86%
03:00 +7°C° 0 mm 0 mps 703 mmHg 88%
04:00 +8°C° 0 mm 1 mps 703 mmHg 88%
05:00 +8°C° 0 mm 1 mps 703 mmHg 87%
06:00 +8°C° 0 mm 1 mps 703 mmHg 86%
07:00 +9°C° 0 mm 1 mps 703 mmHg 82%
08:00 +10°C° 0 mm 1 mps 703 mmHg 78%
09:00 +10°C° 0 mm 0 mps 703 mmHg 73%
10:00 +12°C° 0 mm 1 mps 703 mmHg 67%
11:00 +14°C° 0 mm 1 mps 703 mmHg 61%
12:00 +15°C° 0 mm 1 mps 704 mmHg 55%
13:00 +15°C° 0 mm 1 mps 703 mmHg 55%
14:00 +15°C° 0 mm 1 mps 703 mmHg 56%
15:00 +15°C° 0 mm 1 mps 703 mmHg 56%
16:00 +13°C° 0 mm 1 mps 703 mmHg 63%
17:00 +12°C° 0 mm 1 mps 703 mmHg 69%
18:00 +9°C° 0 mm 0 mps 703 mmHg 76%
19:00 +9°C° 0 mm 0 mps 704 mmHg 76%
20:00 +10°C° 0 mm 1 mps 704 mmHg 77%
21:00 +9°C° 0 mm 1 mps 704 mmHg 78%
22:00 +9°C° 0 mm 1 mps 705 mmHg 78%
23:00 +9°C° 0 mm 1 mps 705 mmHg 79%

29 November, Sunday

Time Temperature Precipitation Wind Pressure Humidity
00:00 +9°C° 0 mm 1 mps 705 mmHg 80%
01:00 +9°C° 0 mm 1 mps 705 mmHg 81%
02:00 +9°C° 0 mm 1 mps 706 mmHg 81%
03:00 +8°C° 0 mm 1 mps 706 mmHg 82%
04:00 +8°C° 0 mm 1 mps 706 mmHg 83%
05:00 +8°C° 0 mm 1 mps 706 mmHg 84%
06:00 +8°C° 0 mm 1 mps 706 mmHg 85%
07:00 +9°C° 0 mm 1 mps 707 mmHg 83%
08:00 +9°C° 0 mm 1 mps 707 mmHg 80%
09:00 +10°C° 0 mm 1 mps 708 mmHg 77%
10:00 +11°C° 0 mm 1 mps 708 mmHg 73%
11:00 +13°C° 0 mm 2 mps 708 mmHg 69%
12:00 +14°C° 0 mm 2 mps 708 mmHg 64%
13:00 +14°C° 0 mm 2 mps 708 mmHg 64%
14:00 +14°C° 0 mm 2 mps 708 mmHg 64%
15:00 +14°C° 0 mm 2 mps 708 mmHg 64%
16:00 +13°C° 0 mm 1 mps 708 mmHg 71%
17:00 +11°C° 0 mm 1 mps 708 mmHg 77%
18:00 +10°C° 0 mm 1 mps 708 mmHg 83%
19:00 +10°C° 0 mm 1 mps 709 mmHg 84%
20:00 +9°C° 0 mm 1 mps 709 mmHg 85%
21:00 +8°C° 0 mm 0 mps 709 mmHg 86%
22:00 +8°C° 0 mm 0 mps 709 mmHg 86%
23:00 +8°C° 0 mm 0 mps 710 mmHg 87%

30 November, Monday

Time Temperature Precipitation Wind Pressure Humidity
00:00 +7°C° 0 mm 0 mps 710 mmHg 87%
01:00 +7°C° 0 mm 0 mps 710 mmHg 87%
02:00 +7°C° 0 mm 0 mps 710 mmHg 88%
03:00 +7°C° 0 mm 0 mps 710 mmHg 88%
04:00 +7°C° 0 mm 0 mps 710 mmHg 88%
05:00 +7°C° 0 mm 0 mps 710 mmHg 88%
06:00 +7°C° 0 mm 0 mps 710 mmHg 88%
07:00 +7°C° 0 mm 0 mps 710 mmHg 85%
08:00 +8°C° 0 mm 0 mps 711 mmHg 83%
09:00 +9°C° 0 mm 0 mps 711 mmHg 80%
10:00 +10°C° 0 mm 0 mps 711 mmHg 75%
11:00 +12°C° 0 mm 0 mps 711 mmHg 69%
12:00 +13°C° 0 mm 0 mps 711 mmHg 64%
13:00 +13°C° 0 mm 0 mps 711 mmHg 65%
14:00 +13°C° 0 mm 0 mps 711 mmHg 66%
15:00 +13°C° 0 mm 0 mps 711 mmHg 66%
16:00 +11°C° 0 mm 0 mps 711 mmHg 74%
17:00 +10°C° 0 mm 0 mps 711 mmHg 81%
18:00 +9°C° 0 mm 1 mps 711 mmHg 88%
19:00 +9°C° 0 mm 1 mps 712 mmHg 89%
20:00 +9°C° 0 mm 1 mps 712 mmHg 91%
21:00 +9°C° 0 mm 1 mps 712 mmHg 92%
22:00 +8°C° 0 mm 1 mps 712 mmHg 93%
23:00 +8°C° 0 mm 1 mps 712 mmHg 93%

1 December, Tuesday

Time Temperature Precipitation Wind Pressure Humidity
00:00 +8°C° 0 mm 1 mps 713 mmHg 93%
01:00 +7°C° 0 mm 1 mps 712 mmHg 93%
02:00 +7°C° 0 mm 1 mps 712 mmHg 93%
03:00 +7°C° 0 mm 1 mps 712 mmHg 93%
04:00 +6°C° 0 mm 1 mps 712 mmHg 93%
05:00 +6°C° 0 mm 1 mps 712 mmHg 93%
06:00 +5°C° 0 mm 1 mps 712 mmHg 93%
07:00 +6°C° 0 mm 1 mps 712 mmHg 90%
08:00 +6°C° 0 mm 1 mps 712 mmHg 87%
09:00 +6°C° 0 mm 1 mps 713 mmHg 84%
10:00 +8°C° 0 mm 1 mps 713 mmHg 74%
11:00 +9°C° 0 mm 1 mps 713 mmHg 63%
12:00 +10°C° 0 mm 2 mps 713 mmHg 52%
13:00 +10°C° 0 mm 2 mps 713 mmHg 51%
14:00 +10°C° 0 mm 2 mps 712 mmHg 51%
15:00 +10°C° 0 mm 2 mps 712 mmHg 50%
16:00 +8°C° 0 mm 2 mps 712 mmHg 60%
17:00 +6°C° 0 mm 2 mps 712 mmHg 71%
18:00 +4°C° 0 mm 2 mps 712 mmHg 82%
19:00 +4°C° 0 mm 2 mps 712 mmHg 85%
20:00 +3°C° 0 mm 2 mps 712 mmHg 88%
21:00 +2°C° 0 mm 2 mps 712 mmHg 92%
22:00 +2°C° 0 mm 2 mps 712 mmHg 92%
23:00 +2°C° 0 mm 2 mps 712 mmHg 93%
Show more